Location: Janeiro
(34.9957°N, 76.7652°W)
Time: 00:03:13
(UTC+00:00)

Cosmos 1461 - Pass Details

Date: 14 December 2019
Orbit: 518 x 648 km, 65.0° (Epoch: 19 January)

Event Time Altitude Azimuth Distance (km) Brightness Sun altitude
Rises 22:40:19 0° 170° (S) 2,632 6.5 -9.0°
Reaches altitude 10° 22:43:10 10° 148° (SSE) 1,742 5.3 -9.5°
Maximum altitude 22:45:33 16° 110° (ESE) 1,416 4.5 -10.0°
Enters shadow 22:46:59 13° 84° (E) 1,547 4.5 -10.2°
